Regional Weather Roundup
Issued by NWS Grand Forks, ND

Home | Current Version | Previous Version | Graphics & Text | Print | Product List | Glossary On
Versions: 1 2 3 4 5 6 7 8 9 10 11 12 13 14 15 16 17 18 19 20 21 22 23 24 25 26 27 28 29 30 31 32 33 34 35 36 37 38 39 40 41 42 43 44 45 46 47 48 49 50
406
ASUS43 KFGF 240931
RWRFGF
PRAIRIE TO PINES  WEATHER ROUNDUP
NATIONAL WEATHER SERVICE EASTERN NORTH DAKOTA/GRAND FORKS ND
400 AM CDT SAT JUN 24 2017

 **SATELLITE DATA USED TO AUGMENT SKY COVER AT AUTOMATED STATIONS**
 *****  WEATHER ACROSS EASTERN NORTH DAKOTA  *****

CITY           SKY/WX    TMP DP  RH WIND       PRES   REMARKS
GRAND FORKS    MOCLDY    50  43  77 W10       29.96S
GRAND FRKS AFB FAIR      47  41  79 NW7       29.96F
DEVILS LAKE    CLOUDY    49  41  74 NW15      30.01S
FARGO          FAIR      46  39  76 W9        30.00R
WAHPETON ARPT  FAIR      43  37  81 W5        30.01F
$$

 ***** WEATHER ACROSS CENTRAL AND WESTERN NORTH DAKOTA  *****

CITY           SKY/WX    TMP DP  RH WIND       PRES   REMARKS
BISMARCK       FAIR      50  41  71 NW8       30.11S
MINOT          FAIR      46  41  82 W12       30.09S
JAMESTOWN      MOCLDY    50  40  68 NW15G25   30.04R
MINOT AFB      FAIR      44  41  89 NW12      30.09R
GARRISON         N/A     47  41  80 NW14      30.10S
WILLISTON      FAIR      48  35  60 NW13      30.19R
DICKINSON      FAIR      47  33  58 NW9       30.16R
HETTINGER      FAIR      40  31  70 W8        30.18F
$$

 *****  OTHER AIRPORT OBSERVATIONS IN OUR AREA  *****

CITY           SKY/WX    TMP DP  RH WIND       PRES   REMARKS
WALHALLA       NOT AVBL
GRAFTON AIRPOR CLOUDY    52  43  71 NW13      29.96F
VALLEY CITY AR CLOUDY    50  41  71 NW15G22   30.04F
CANDO          NOT AVBL
CAVALIER APRT  PTSUNNY   52  43  71 NW12      29.95S
GWINNER        NOT AVBL
SHEYENNE NWR     N/A     42  39  89 W6        29.95S
ROLLA            N/A     46  45  93 NW20      30.02S
 ***** THE ABOVE OBSERVATIONS ARE NON NWS ARE NOT QUALITY
       CONTROLLED AND MAY MIS-REPORT RAIN FOR SNOW...
$$

  *****  WEATHER ACROSS NORTHERN MINNESOTA  *****

CITY           SKY/WX    TMP DP  RH WIND       PRES   REMARKS
FLAG ISLAND    FAIR      52  48  87 W17       29.86S
WARROAD        CLOUDY    48  45  87 W3        29.90S
ROSEAU           N/A     50  45  81 W7        29.90S
HALLOCK        CLOUDY    52  46  82 W7        29.93S
THF RVR FALLS  CLOUDY    51  43  74 W8        29.94F
BAUDETTE       CLOUDY    50  49  96 W7        29.87S
WASKISH        DRIZZLE   52  46  82 W12G17    29.90S
CROOKSTON      FAIR      45  43  93 W7        29.96S
STEPHEN NDAWN    N/A     52  43  71 W7          N/A
GREENBUSH NDAW   N/A     52  45  76 NW8         N/A
$$
  *****  WEATHER ACROSS CENTRAL AND WEST MINNESOTA  *****

CITY           SKY/WX    TMP DP  RH WIND       PRES   REMARKS
FOSSTON        CLOUDY    50  41  71 W9        29.95S
BEMIDJI        FAIR      46  41  84 W8        29.93S
PARK RAPIDS    FAIR      45  38  76 W7        29.95S
ELBOW LAKE     FAIR      45  41  85 NW5       30.01F
WADENA         FAIR      46  39  76 W7        29.96F
DETROIT LAKES  FAIR      50  39  66 W8        29.99S
MOORHEAD       FAIR      46  39  76 W9        30.00S
FERGUS FALLS   FAIR      45  39  81 W7        29.99F
MORRIS MN      FAIR      48  43  81 W9        30.01S
STAPLES        MOCLDY    48  39  71 W8        29.96S
$$
  *****  WEATHER ELSEWHERE ACROSS MINNESOTA  *****

CITY           SKY/WX    TMP DP  RH WIND       PRES   REMARKS
DULUTH         MOCLDY    52  48  86 NW9       29.86R
INTRNTL FALLS  CLOUDY    52  49  89 W6        29.85S
ELY            CLOUDY    52  50  93 W5        29.84R
CLOQUET        CLOUDY    54  46  76 W7        29.88S
WHEATON        FAIR      50  39  66 W6        30.04F
BRAINERD       FAIR      52  41  66 W8        29.94F
HIBBING        CLOUDY    52  46  80 NW7       29.87S
ALEXANDRIA     FAIR      50  41  71 W10       30.01S
SAINT CLOUD    FAIR      50  43  77 NW8       29.96S
MINNEAPOLIS    FAIR      57  46  66 W9        29.95S
$$

  *****  WEATHER ACROSS SOUTH DAKOTA  *****

CITY           SKY/WX    TMP DP  RH WIND       PRES   REMARKS
SIOUX FALLS    FAIR      49  43  80 W6        30.11S
BROOKINGS      FAIR      46  40  79 W3        30.09F
WATERTOWN      FAIR      44  40  85 W8        30.06F
HURON          FAIR      46  41  82 SW6       30.11F
SISSETON         N/A     50  41  71 W6        30.02F
ABERDEEN       FAIR      40  38  93 SW5       30.07F
MITCHELL       FAIR      49  40  71 W6        30.13F
PIERRE         FAIR      48  36  63 W10       30.13F
MOBRIDGE       FAIR      45  38  76 NW3       30.09S
RAPID CITY     FAIR      48  29  47 NW10      30.25S
$$

  *****  SOME WEATHER IN NEARBY STATES *****

CITY           SKY/WX    TMP DP  RH WIND       PRES   REMARKS
GLASGOW MT     MOCLDY    49  34  56 NE9       30.23R
GREAT FALLS MT CLOUDY    52  41  66 SW6       30.32R
CHEYENNE WY    CLOUDY    53  29  39 E7        30.34F
SCOTTSBLUFF NE CLOUDY    57  35  43 CALM      30.30F
OMAHA NE       FAIR      55  48  77 CALM      30.14R
DES MOINES IA  FAIR      57  50  77 W6        30.06S
DAVENPORT IA   FAIR      59  55  87 W9        29.97S
CHICAGO IL     FAIR      63  55  75 W10       29.88R
EAU CLAIRE WI  FAIR      55  52  89 W6        29.91R
LA CROSSE WI   FAIR      62  52  69 N3        29.93R
$$

  *****  SOME NATIONAL WEATHER *****

CITY           SKY/WX    TMP DP  RH WIND       PRES   REMARKS
LA GUARDIA NY  CLOUDY    74  71  91 NW9       29.60R
RALEIGH NC     CLOUDY    77  74  90 W13G26    29.84S
ATLANTA GA     CLOUDY    72  71  97 SW8       29.98R
NEW ORLEANS LA CLOUDY    79  78  97 SW5       29.98S
OKLAHOMA CITY  CLOUDY    72  52  49 NE15      30.10R
ALBUQUERQUE NM FAIR      70  52  52 E21G32    30.19S
SALT LAKE CITY CLEAR     66  41  40 SE5       30.14S
LOS ANGELES CA CLOUDY    61  60  97 W10       29.90F FOG
BOISE ID       FAIR      59  38  45 SE3       30.13R
SEATTLE WA     FAIR      64  47  53 N6        30.15S
$$

*** WEATHER ACROSS MANITOBA...SASKATCHEWAN AND ONTARIO ***
                ***ONTARIO***

CITY           SKY/WX    TMP DP  RH WIND       PRES   REMARKS
GERALDTON      PTCLDY    46  46 100 NW3       29.75R
THUNDER BAY    MOCLDY    54  54 100 SW5       29.76R
SIOUX LOOKOUT  CLOUDY    54  54 100 NW3       29.79R
TORONTO        MOCLDY    63  54  72 W6        29.65R
BIG TROUT LK   CLOUDY    43  37  81 N5        29.90R
PICKLE LAKE    NOT AVBL
DRYDEN         LGT RAIN  52  52 100 W7        29.81R
KENORA         LGT RAIN  50  48  93 W7        29.84S
$$
                *** MANITOBA***

CITY           SKY/WX    TMP DP  RH WIND       PRES   REMARKS
BRANDON        MOCLDY    43  41  93 NW12      30.01F
DAUPHIN        LGT RAIN  48  45  87 NW10      30.02S
ISLAND LAKE    PTCLDY    43  37  81 N7        29.99R
PILOT MOUND      N/A     46  43  87 NW10        N/A
THE PAS        LGT RAIN  48  45  87 NW9       30.11R
THOMPSON       CLOUDY    45  39  81 N2        30.07R
WINNIPEG       PTCLDY    48  48 100 W9        29.91F
LYNN LAKE      CLOUDY    46  41  81 NW5       30.13S
CHURCHILL      MOCLDY    46  41  81 W5        30.01F
GILLAM         MOCLDY    37  36  93 CALM      30.04S
$$
                ***SASKATCHEWAN***

CITY           SKY/WX    TMP DP  RH WIND       PRES   REMARKS
ESTEVAN        PTCLDY    41  39  93 NW12      30.15R
KINDERSLEY     PTCLDY    41  39  93 SW3       30.23S
LLOYDMINSTER   MOCLDY    46  45  93 W8        30.22S
PRINCE ALBERT  MOCLDY    37  36  93 CALM      30.24S
REGINA         CLEAR     37  36  93 NW8       30.21R
YORKTON        CLOUDY    46  41  81 NW15G21   30.12R
N. BATTLEFORD  CLEAR     37  36  93 SE5       30.24S
LA RONGE       MOCLDY    43  41  93 CALM      30.18S
SASKATOON      CLEAR     37  36  93 SW6       30.25R
SWIFT CURRENT  CLEAR     41  37  87 S10       30.23R
$$
NOTE: THESE ARE AUTOMATED STATIONS WITH LIMITED QUALITY CONTROL
      "FAIR" INDICATES FEW OR NO CLOUDS BELOW 12,000 FEET WITH NO
      SIGNIFICANT WEATHER AND/OR OBSTRUCTIONS TO VISIBILITY.
      SKY/WX - SKY CONDITION AND SIGNIFICANT WEATHER.
      TMP - AIR TEMPERATURE.    DP   - DEWPOINT TEMPERATURE.
      RH  - RELATIVE HUMIDITY.  PRES - PRESSURE.
      HX  - HEAT INDEX.         WCI  - WIND CHILL INDEX.
$




USA.gov is the U.S. government's official web portal to all federal, state and local government web resources and services.